DMSP 5D-2 F11 DEB, 28315

Orbit data source: Space-Track

DMSP 5D-2 F11 DEB, 28315 is space debris in SSO originally from a launch on Thu, 28 Nov 1991 UTC launched from the Air Force Western Test Range (AFWTR). Debris objects in space refer to the collection of defunct objects orbiting the Earth. Examples of debris include non-operational satellites, rocket bodies, and fragments generated from explosions, collisions, or faulty payload assembly.

Loading next visibility...
Identifier
28315, 1991-082AC
Orbit
SSO
Country
Flag of USUS
Related business
Manufacturer
Unknown
Mission
Spacecraft
Bus & Motor
Unknown
Mass
Unknown
Launch date (UTC)
1991-11-28 (35 years ago)
Launch vehicle
Unknown
Launch site
Air Force Western Test Range (AFWTR)
Object type
Payload
Rocket body
Debris
Shape & HBR
Unknown shape, 0.1 m
Radar Cross Section
Medium (>0.1 m² and <1 m²)

Expand to show TLE details & history
Last TLE update: 13 hours ago

TLE from 13 hours ago
0 DMSP 5D-2 F11 DEB
1 28315U 91082AC  26208.74373264  .00004884  00000-0  20674-2 0  9998
2 28315  98.7920 309.1759 0103097 108.8185  52.4696 14.23082191135429
Epoch: 2026-07-27T17:50Z
TLE epoch observation values (Epoch: 2026-07-27T17:50:58.500Z)
Latitude
17.5424°
Longitude
-81.20334°
Altitude
772.576 km
Speed
7.492 km/s
True Right ascension
08h 47m 51s
True Declination
17° 26' 38"
Sunlit
Object was in daylight at epoch
Visualization orbit readout
Latitude
Unknown
Longitude
Unknown
Altitude
Unknown
Speed
Unknown
Apparent Right ascension
Unknown
Apparent Declination
Unknown
Sunlit
N/A
Visualization observer readout
Local Sidereal Time
19:51:52
Azimuth
Unknown
Elevation
Unknown
Doppler factor
Unknown
Orbital elements
Apogee altitude
886.235 km
Perigee altitude
737.977 km
Semi-major axis
7,190.243 km
Eccentricity
0.01031
Inclination
98.792°
RAAN
309.1759°
Arg. of periapsis
108.8185°
True anomaly
53.41386°
Mean anomaly
52.4696°
Eccentric anomaly
52.94099°
Mean motion
3.55982 °/min
Orbital period
101.13 mins
BSTAR
0.0020674
Loading maneuver chart data...
Computing Atmospheric mass density...

Documentation

Showing up to 5 results
|